{"data":{"norad_id":59255,"intl_designator":"2024-050B","name":"STARLINK-31629","alt_names":[],"object_type":"PAYLOAD","status":"ACTIVE","operator":null,"country":"US","launch_date":"2024-03-19","launch_site_code":"AFWTR","launch_vehicle":null,"mission":null,"orbit_class":"UNKNOWN","rcs_meters":null,"size_class":null,"mass_kg":null,"dimensions":null,"purposes":["comms"],"wikipedia_slug":null,"has_3d_model":false,"image_url":null,"decayed_at":null,"tle_current":{"epoch":"2026-09-21T12:58:55.360128Z","epoch_age_seconds":72316,"freshness":"FRESH","line1":"1 59255U 24050B   26264.54091852  .00000882  00000+0  37230-4 0  9997","line2":"2 59255  53.1622 350.6246 0001129  89.1340 270.9792 15.34392127140548","mean_motion":15.34392127,"eccentricity":0.0001129,"inclination_deg":53.1622,"raan_deg":350.6246,"arg_perigee_deg":89.134,"mean_anomaly_deg":270.9792,"bstar":3.723e-5,"rev_number":14054,"period_min":93.848239616261,"perigee_km":461.9543070173,"apogee_km":463.49897402733,"semimajor_km":6840.8636405223,"source":"CELESTRAK","updated_at":"2026-09-22T09:00:48.870971Z"}}}